Location: Balsareny
(41.8670°N, 1.8830°E)
Time: 00:25:31
(UTC+01:00)

ISS - Pass Details

Date: 06 December 2021
Orbit: 413 x 422 km, 51.6° (Epoch: 25 January)

Event Time Altitude Azimuth Distance (km) Brightness Sun altitude
Rises 19:26:02 0° 298° (WNW) 2,381 0.9 -22.5°
Reaches altitude 10° 19:28:15 10° 289° (WNW) 1,510 -0.1 -22.9°
Maximum altitude 19:31:22 34° 223° (SW) 711 -2.2 -23.5°
Enters shadow 19:31:41 33° 210° (SSW) 723 -2.3 -23.5°
